TimeMDT,TemperatureF,Dew PointF,Humidity,Sea Level PressureIn,VisibilityMPH,Wind Direction,Wind SpeedMPH,Gust SpeedMPH,PrecipitationIn,Events,Conditions,WindDirDegrees,DateUTC
5:55 AM,21.2,19.4,93,29.94,0.8,North,15.0,-,N/A,Snow,Light Snow,350,2013-03-23 11:55:00
6:55 AM,19.4,19.4,100,29.96,0.8,North,16.1,-,N/A,Snow,Light Snow,10,2013-03-23 12:55:00
8:55 AM,15.8,15.8,100,30.05,0.5,North,24.2,32.2,N/A,Snow,Snow,350,2013-03-23 14:55:00
9:41 AM,15.8,14.0,93,29.95,0.2,North,23.0,-,N/A,Snow,Snow,10,2013-03-23 15:41:00
9:55 AM,15.8,14.0,93,30.08,0.2,North,18.4,-,N/A,Snow,Snow,360,2013-03-23 15:55:00
10:55 AM,14.0,12.2,93,30.13,0.2,North,19.6,29.9,N/A,Snow,Snow,360,2013-03-23 16:55:00
11:55 AM,14.0,12.2,93,30.15,0.2,North,25.3,-,N/A,Snow,Snow,360,2013-03-23 17:55:00
12:55 PM,14.0,12.2,93,30.17,0.2,North,19.6,26.5,N/A,Snow,Light Snow,360,2013-03-23 18:55:00
1:55 PM,15.8,12.2,86,30.18,0.5,North,13.8,-,N/A,Fog-Snow,Light Snow,350,2013-03-23 19:55:00
2:15 PM,15.8,12.2,86,30.04,1.2,North,16.1,-,N/A,Snow,Light Snow,350,2013-03-23 20:15:00
2:55 PM,15.8,12.2,86,30.18,1.2,North,16.1,-,N/A,Snow,Light Snow,10,2013-03-23 20:55:00
3:55 PM,15.8,14.0,93,30.19,2.0,North,16.1,-,N/A,Snow,Light Snow,360,2013-03-23 21:55:00
4:55 PM,15.8,14.0,93,30.21,2.0,NNW,6.9,-,N/A,Snow,Light Snow,340,2013-03-23 22:55:00
5:55 PM,15.8,14.0,93,30.22,3.0,NNW,9.2,-,N/A,Snow,Light Snow,340,2013-03-23 23:55:00
6:14 PM,15.8,15.8,100,30.09,7.0,NNW,6.9,-,N/A,Snow,Light Snow,330,2013-03-24 00:14:00
6:55 PM,15.8,15.8,100,30.25,6.0,NNW,8.1,-,N/A,Snow,Light Snow,330,2013-03-24 00:55:00
7:55 PM,14.0,14.0,100,30.28,7.0,WNW,4.6,-,N/A,Snow,Light Snow,290,2013-03-24 01:55:00
8:55 PM,15.8,14.0,93,30.30,7.0,WSW,6.9,-,N/A,,Mostly Cloudy,250,2013-03-24 02:55:00
9:55 PM,12.2,12.2,100,30.32,7.0,WSW,8.1,-,N/A,,Scattered Clouds,240,2013-03-24 03:55:00
10:55 PM,12.2,10.4,92,30.33,7.0,SW,6.9,-,N/A,,Scattered Clouds,230,2013-03-24 04:55:00
11:55 PM,10.4,8.6,92,30.32,7.0,SSW,6.9,-,N/A,,Scattered Clouds,210,2013-03-24 05:55:00